Showing default

LEMUR 2 FURIAUS, 42840

Orbit data source: Space-Track

LEMUR 2 FURIAUS, 42840 is a payload satellite owned by Spire (US) in SSO that was launched on Fri, 14 Jul 2017 UTC via a SOYUZ-2-1A launch vehicle from the Tyuratam Missile And Space Complex (TTMTR). Payload-class satellites include a variety of spacecraft equipped with specific instruments for various scientific and technological missions. These include communications satellites like Starlink; space stations such as the ISS; scientific satellites like the Hubble; Earth observation satellites from companies like Planet Labs, Umbra, and HawkEye 360; GPS; miniature CubeSats for education and research; and military/defense satellites.

Loading next visibility...
Identifier
42840, 2017-042R
Orbit
SSO
Country
Flag of USUS
Related business
Manufacturer
Spire/Glasgow
Mission
Operational Commercial Com/MetRO
Bus & Motor
CUBESAT 3U, Unknown motor
Mass
4 kg wet, 4 kg dry
Launch date (UTC)
2017-07-14 (9 years ago)
Launch vehicle
SOYUZ-2-1A
Launch site
Tyuratam Missile And Space Complex (TTMTR)
Object type
Payload
Rocket body
Debris
Shape & HBR
Box, 0.5 m
Radar Cross Section
0.093 m², Small (<0.1 m²)

Expand to show TLE details & history
Last TLE update: 11 hours ago

TLE from 11 hours ago
0 LEMUR 2 FURIAUS
1 42840U 17042R   26119.46840937  .00019782  00000-0  71237-3 0  9992
2 42840  97.3756 298.4492 0006984 227.6692 132.3957 15.28589620480767
Epoch: 2026-04-29T11:14Z
TLE epoch observation values (Epoch: 2026-04-29T11:14:30.569Z)
Latitude
-0.00001°
Longitude
-87.6071°
Altitude
486.362 km
Speed
7.62 km/s
True Right ascension
19h 53m 47s
True Declination
0° 00' 00"
Sunlit
Object was in daylight at epoch
Visualization orbit readout
Latitude
Unknown
Longitude
Unknown
Altitude
Unknown
Speed
Unknown
Apparent Right ascension
Unknown
Apparent Declination
Unknown
Sunlit
N/A
Visualization observer readout
Local Sidereal Time
05:38:26
Azimuth
Unknown
Elevation
Unknown
Doppler factor
Unknown
Orbital elements
Apogee altitude
481.768 km
Perigee altitude
472.193 km
Semi-major axis
6,855.118 km
Eccentricity
0.0007
Inclination
97.3756°
RAAN
298.4492°
Arg. of periapsis
227.6692°
True anomaly
132.45477°
Mean anomaly
132.3957°
Eccentric anomaly
132.42524°
Mean motion
3.82403 °/min
Orbital period
94.14 mins
BSTAR
0.00071237
Loading maneuver chart data...
Computing Atmospheric mass density...
Loading historical data...
Loading historical data...
Loading historical data...
Loading historical data...
Loading historical data...
Loading historical data...
Loading historical data...

Documentation

Showing up to 5 results
|